Weather History for Burlington, VT

Change the Weather History Date:

Saturday, February 2, 2013

  Actual Average Record
Temperature  
Mean Temperature 16 °F 19 °F  
Max Temperature 22 °F 28 °F 47 °F (1981)
Min Temperature 9 °F 10 °F -25 °F (1962)
Degree Days  
Heating Degree Days 49 46  
Month to date heating degree days 96 92  
Since 1 July heating degree days 3832 4286  
Cooling Degree Days 0 0  
Month to date cooling degree days 0 0  
Year to date cooling degree days 0 0  
Moisture  
Dew Point 5 °F    
Average Humidity 61    
Maximum Humidity 74    
Minimum Humidity 47    
Precipitation  
Precipitation T in 0.06 in 1.75 in (1981)
Month to date precipitation 0.01 0.13  
Year to date precipitation 1.12 2.19  
Snow  
Snow T in 0.60 in 11.30 in (2011)
Month to date snowfall 0.2 1.2  
Since 1 July snowfall 49.3 45.6  
Snow Depth 0.00 in    
Sea Level Pressure  
Sea Level Pressure 30.11 in    
Wind  
Wind Speed 8 mph (South)    
Max Wind Speed 18 mph    
Max Gust Speed 25 mph    
Visibility 10 miles    
Events Snow    
T = Trace of Precipitation, MM = Missing Value Source: NWS Daily Summary

Daily Weather History Graph

Daily Weather History Graph

Search for Another Location

Airport:

Trip Planner

Search our weather history database for the weather conditions in past years. The results will help you decide how hot, cold, wet, or windy it might be!

Date:

Astronomy

Feb. 02, 2013 Rise Set
Actual Time 7:09 AM EST 5:03 PM EST
Civil Twilight 6:38 AM EST 5:34 PM EST
Nautical Twilight 6:04 AM EST 6:09 PM EST
Astronomical Twilight 5:30 AM EST 6:43 PM EST
Moon No Moon Rise 10:00 AM EST (2/2)
Length of Visible Light 10h 55m
Length of Day
9h 53m
Waning Gibbous, 60% of the Moon is Illuminated
Feb 2
Waning Gibbous
Feb 3
Last Quarter
Feb 10
New
Feb 17
First Quarter
Feb 25
Full

Hourly Weather History & Observations

Time (EST) Temp. Windchill Dew Point Humidity Pressure Visibility Wind Dir Wind Speed Gust Speed Precip Events Conditions
12:54 AM 12.0 °F 1.5 °F 1.0 °F 61% 30.17 in 10.0 mi North 6.9 mph - 0.00 in   Overcast
1:54 AM 12.0 °F 4.1 °F 1.0 °F 61% 30.18 in 10.0 mi Variable 4.6 mph - N/A   Overcast
2:54 AM 10.9 °F 0.2 °F 1.0 °F 64% 30.19 in 10.0 mi North 6.9 mph - N/A   Overcast
3:54 AM 9.0 °F 0.6 °F 1.0 °F 70% 30.20 in 10.0 mi NE 4.6 mph - N/A   Clear
4:54 AM 9.0 °F 0.6 °F 1.0 °F 70% 30.19 in 10.0 mi East 4.6 mph - N/A   Overcast
5:54 AM 9.0 °F -3.2 °F 1.0 °F 70% 30.17 in 10.0 mi ESE 8.1 mph - N/A   Scattered Clouds
6:54 AM 8.6 °F - 1.4 °F 73% 30.15 in 10.0 mi Calm Calm - N/A   Scattered Clouds
7:01 AM 10.4 °F 4.0 °F 1.4 °F 67% 30.15 in 10.0 mi SSE 3.5 mph - N/A   Overcast
7:28 AM 10.4 °F - 1.4 °F 67% 30.16 in 8.0 mi Calm Calm - N/A   Overcast
7:54 AM 10.9 °F - 3.0 °F 70% 30.19 in 9.0 mi Calm Calm - 0.00 in Snow Light Snow
8:54 AM 12.9 °F 1.6 °F 3.9 °F 67% 30.18 in 10.0 mi South 8.1 mph - 0.00 in   Scattered Clouds
9:54 AM 16.0 °F 3.6 °F 3.0 °F 57% 30.15 in 10.0 mi South 10.4 mph - N/A   Scattered Clouds
10:54 AM 19.0 °F 6.8 °F 3.9 °F 52% 30.13 in 10.0 mi South 11.5 mph 18.4 mph N/A   Overcast
11:54 AM 21.0 °F 8.1 °F 5.0 °F 50% 30.09 in 10.0 mi SSW 13.8 mph - N/A   Scattered Clouds
12:54 PM 21.9 °F 8.7 °F 5.0 °F 48% 30.06 in 10.0 mi South 15.0 mph 25.3 mph N/A   Mostly Cloudy
1:54 PM 21.9 °F 8.2 °F 6.1 °F 51% 30.04 in 10.0 mi South 16.1 mph 23.0 mph N/A   Mostly Cloudy
2:54 PM 21.9 °F 10.4 °F 7.0 °F 53% 30.04 in 10.0 mi South 11.5 mph 20.7 mph N/A   Overcast
3:54 PM 21.0 °F 8.6 °F 9.0 °F 60% 30.04 in 9.0 mi South 12.7 mph 21.9 mph 0.00 in   Overcast
4:54 PM 21.0 °F 9.3 °F 9.0 °F 60% 30.03 in 10.0 mi South 11.5 mph - N/A   Overcast
5:54 PM 21.0 °F 11.4 °F 9.0 °F 60% 30.04 in 10.0 mi South 8.1 mph - N/A   Overcast
6:54 PM 21.0 °F 12.4 °F 10.0 °F 63% 30.04 in 10.0 mi South 6.9 mph - N/A   Overcast
7:54 PM 19.9 °F 12.1 °F 10.0 °F 65% 30.04 in 10.0 mi South 5.8 mph - N/A   Overcast
8:54 PM 19.9 °F 13.4 °F 10.0 °F 65% 30.04 in 10.0 mi South 4.6 mph - N/A   Overcast
9:54 PM 18.0 °F 9.8 °F 10.0 °F 71% 30.04 in 10.0 mi South 5.8 mph - N/A   Partly Cloudy
10:54 PM 18.0 °F 7.7 °F 10.9 °F 74% 30.05 in 10.0 mi NW 8.1 mph - N/A   Mostly Cloudy
11:29 PM 17.6 °F 9.3 °F 10.4 °F 73% 30.03 in 10.0 mi NW 5.8 mph - N/A   Overcast
11:54 PM 15.1 °F 6.4 °F 10.0 °F 80% 30.05 in 7.0 mi NW 5.8 mph - 0.00 in Snow Light Snow